Weather History for Pine River, MN

Change the Weather History Date:

Friday, November 16, 2012

  Actual Average Record
Temperature  
Mean Temperature 24 °F -  
Max Temperature 37 °F 35 °F 57 °F (2001)
Min Temperature 12 °F 20 °F -5 °F (1997)
Degree Days  
Heating Degree Days 40    
Moisture  
Dew Point 13 °F    
Average Humidity 63    
Maximum Humidity 93    
Minimum Humidity 28    
Precipitation  
Precipitation 0.00 in - - ()
Sea Level Pressure  
Sea Level Pressure 30.38 in    
Wind  
Wind Speed 3 mph (SSE)    
Max Wind Speed 13 mph    
Max Gust Speed 16 mph    
Visibility 10 miles    
Events      
Averages and records for this station are not official NWS values.
T = Trace of Precipitation, MM = Missing Value Source: NWS Daily Summary

Daily Weather History Graph

Daily Weather History Graph

Search for Another Location

Airport:

Trip Planner

Search our weather history database for the weather conditions in past years. The results will help you decide how hot, cold, wet, or windy it might be!

Date:

Astronomy

Nov. 16, 2012 Rise Set
Actual Time 7:22 AM CST 4:42 PM CST
Civil Twilight 6:49 AM CST 5:15 PM CST
Nautical Twilight 6:12 AM CST 5:52 PM CST
Astronomical Twilight 5:36 AM CST 6:27 PM CST
Moon 10:20 AM CST (11/16) 7:40 PM CST (11/16)
Length of Visible Light 10h 26m
Length of Day
9h 19m
Waxing Crescent, 12% of the Moon is Illuminated
Nov 16
Waxing Crescent
Nov 20
First Quarter
Nov 28
Full
Dec 6
Last Quarter
Dec 13
New

Hourly Weather History & Observations

Time (CST) Temp. Windchill Dew Point Humidity Pressure Visibility Wind Dir Wind Speed Gust Speed Precip Events Conditions
12:13 AM 15.8 °F - 12.2 °F 86% 30.49 in 10.0 mi Calm Calm - N/A   Clear
12:33 AM 15.8 °F - 12.2 °F 86% 30.49 in 10.0 mi Calm Calm - N/A   Clear
12:52 AM 15.8 °F - 10.4 °F 79% 30.48 in 10.0 mi Calm Calm - N/A   Clear
1:13 AM 15.8 °F - 10.4 °F 79% 30.48 in 10.0 mi Calm Calm - N/A   Clear
1:32 AM 15.8 °F - 10.4 °F 79% 30.48 in 10.0 mi Calm Calm - N/A   Clear
1:52 AM 14.0 °F - 10.4 °F 86% 30.48 in 10.0 mi Calm Calm - N/A   Clear
2:12 AM 15.8 °F - 10.4 °F 79% 30.49 in 10.0 mi Calm Calm - N/A   Clear
2:33 AM 14.0 °F - 10.4 °F 86% 30.48 in 10.0 mi Calm Calm - N/A   Clear
2:52 AM 14.0 °F - 10.4 °F 86% 30.47 in 10.0 mi Calm Calm - N/A   Clear
3:12 AM 14.0 °F - 10.4 °F 86% 30.47 in 10.0 mi Calm Calm - N/A   Clear
3:32 AM 14.0 °F - 10.4 °F 86% 30.47 in 10.0 mi Calm Calm - N/A   Clear
3:53 AM 12.2 °F - 10.4 °F 92% 30.47 in 10.0 mi Calm Calm - N/A   Clear
4:13 AM 12.2 °F - 10.4 °F 92% 30.46 in 10.0 mi Calm Calm - N/A   Clear
4:32 AM 12.2 °F - 10.4 °F 92% 30.46 in 10.0 mi Calm Calm - N/A   Clear
4:53 AM 12.2 °F - 10.4 °F 92% 30.46 in 10.0 mi Calm Calm - N/A   Clear
5:13 AM 12.2 °F - 10.4 °F 92% 30.46 in 10.0 mi Calm Calm - N/A   Clear
5:33 AM 12.2 °F - 8.6 °F 85% 30.45 in 10.0 mi Calm Calm - N/A   Clear
5:53 AM 12.2 °F - 10.4 °F 92% 30.45 in 10.0 mi Calm Calm - N/A   Clear
6:13 AM 12.2 °F - 10.4 °F 92% 30.44 in 10.0 mi Calm Calm - N/A   Clear
6:33 AM 14.0 °F - 10.4 °F 86% 30.44 in 10.0 mi Calm Calm - N/A   Clear
6:53 AM 12.2 °F - 10.4 °F 92% 30.44 in 10.0 mi Calm Calm - N/A   Clear
7:12 AM 14.0 °F - 12.2 °F 93% 30.44 in 10.0 mi Calm Calm - N/A   Clear
7:32 AM 15.8 °F 10.2 °F 12.2 °F 86% 30.44 in 7.0 mi South 3.5 mph - N/A   Clear
7:53 AM 17.6 °F - 12.2 °F 79% 30.45 in 10.0 mi Calm Calm - N/A   Clear
8:13 AM 19.4 °F 14.3 °F 15.8 °F 86% 30.45 in 7.0 mi SSE 3.5 mph - N/A   Clear
8:33 AM 21.2 °F 16.4 °F 17.6 °F 86% 30.46 in 10.0 mi South 3.5 mph - N/A   Clear
8:52 AM 23.0 °F 17.0 °F 17.6 °F 80% 30.46 in 10.0 mi SSE 4.6 mph - N/A   Clear
9:13 AM 24.8 °F 16.9 °F 17.6 °F 74% 30.45 in 10.0 mi SSE 6.9 mph - N/A   Clear
9:33 AM 26.6 °F 17.5 °F 17.6 °F 69% 30.46 in 10.0 mi South 9.2 mph - N/A   Clear
9:52 AM 26.6 °F 18.2 °F 17.6 °F 69% 30.46 in 10.0 mi South 8.1 mph - N/A   Clear
10:13 AM 28.4 °F 20.4 °F 17.6 °F 64% 30.46 in 10.0 mi SSE 8.1 mph - N/A   Clear
10:33 AM 28.4 °F 21.2 °F 15.8 °F 59% 30.46 in 10.0 mi South 6.9 mph - N/A   Clear
10:52 AM 30.2 °F 24.3 °F 15.8 °F 55% 30.46 in 10.0 mi South 5.8 mph - N/A   Clear
11:11 AM 32.0 °F 24.8 °F 14.0 °F 48% 30.45 in 10.0 mi SSE 8.1 mph - N/A   Clear
11:32 AM 33.8 °F 26.4 °F 12.2 °F 41% 30.44 in 10.0 mi South 9.2 mph - N/A   Clear
11:53 AM 33.8 °F 25.8 °F 12.2 °F 41% 30.43 in 10.0 mi SSE 10.4 mph - N/A   Clear
12:13 PM 33.8 °F 25.8 °F 12.2 °F 41% 30.41 in 10.0 mi SSE 10.4 mph 16.1 mph N/A   Clear
12:32 PM 35.6 °F 29.2 °F 10.4 °F 35% 30.41 in 10.0 mi SSE 8.1 mph - N/A   Clear
12:53 PM 35.6 °F 28.0 °F 12.2 °F 38% 30.39 in 10.0 mi SSE 10.4 mph - N/A   Clear
1:12 PM 35.6 °F 28.0 °F 12.2 °F 38% 30.38 in 10.0 mi SE 10.4 mph - N/A   Clear
1:33 PM 37.4 °F 29.8 °F 12.2 °F 36% 30.37 in 10.0 mi SE 11.5 mph - N/A   Clear
1:53 PM 37.4 °F 30.8 °F 10.4 °F 33% 30.37 in 10.0 mi SSE 9.2 mph - N/A   Clear
2:13 PM 37.4 °F 31.4 °F 12.2 °F 36% 30.36 in 10.0 mi SSE 8.1 mph - N/A   Clear
2:33 PM 37.4 °F 30.3 °F 10.4 °F 33% 30.35 in 10.0 mi SSE 10.4 mph - N/A   Clear
2:53 PM 37.4 °F 30.8 °F 10.4 °F 33% 30.34 in 10.0 mi SSE 9.2 mph - N/A   Clear
3:13 PM 37.4 °F 29.3 °F 6.8 °F 28% 30.33 in 10.0 mi SSE 12.7 mph - N/A   Clear
3:33 PM 37.4 °F 29.8 °F 8.6 °F 30% 30.33 in 10.0 mi SSE 11.5 mph - N/A   Clear
3:53 PM 37.4 °F 31.4 °F 10.4 °F 33% 30.32 in 10.0 mi SSE 8.1 mph - N/A   Clear
4:13 PM 35.6 °F 28.6 °F 10.4 °F 35% 30.32 in 10.0 mi SSE 9.2 mph - N/A   Clear
4:33 PM 33.8 °F 28.6 °F 10.4 °F 38% 30.32 in 10.0 mi SSE 5.8 mph - N/A   Clear
4:53 PM 33.8 °F 28.6 °F 12.2 °F 41% 30.31 in 10.0 mi SE 5.8 mph - N/A   Clear
5:12 PM 32.0 °F 26.4 °F 12.2 °F 44% 30.31 in 10.0 mi SE 5.8 mph - N/A   Clear
5:33 PM 30.2 °F 24.3 °F 12.2 °F 47% 30.30 in 10.0 mi SE 5.8 mph - N/A   Clear
5:53 PM 30.2 °F 22.6 °F 12.2 °F 47% 30.29 in 10.0 mi SE 8.1 mph - N/A   Clear
6:13 PM 30.2 °F 23.4 °F 12.2 °F 47% 30.29 in 10.0 mi SE 6.9 mph - N/A   Clear
6:33 PM 30.2 °F 22.6 °F 14.0 °F 51% 30.29 in 10.0 mi SSE 8.1 mph - N/A   Clear
6:53 PM 32.0 °F 24.2 °F 14.0 °F 48% 30.28 in 10.0 mi SE 9.2 mph - N/A   Clear
7:13 PM 32.0 °F 25.6 °F 15.8 °F 51% 30.28 in 10.0 mi SSE 6.9 mph - N/A   Clear
7:33 PM 30.2 °F 21.9 °F 15.8 °F 55% 30.27 in 10.0 mi SE 9.2 mph - N/A   Clear
7:52 PM 30.2 °F 21.9 °F 15.8 °F 55% 30.27 in 10.0 mi SE 9.2 mph - N/A   Clear
8:12 PM 30.2 °F 22.6 °F 15.8 °F 55% 30.27 in 10.0 mi SSE 8.1 mph - N/A   Clear
8:33 PM 30.2 °F 23.4 °F 15.8 °F 55% 30.27 in 10.0 mi SSE 6.9 mph - N/A   Clear
8:53 PM 30.2 °F 22.6 °F 15.8 °F 55% 30.27 in 10.0 mi SSE 8.1 mph - N/A   Clear
9:12 PM 30.2 °F 23.4 °F 15.8 °F 55% 30.27 in 10.0 mi SSE 6.9 mph - N/A   Clear
9:33 PM 28.4 °F 21.2 °F 15.8 °F 59% 30.26 in 10.0 mi SE 6.9 mph - N/A   Clear
9:52 PM 28.4 °F 20.4 °F 15.8 °F 59% 30.25 in 10.0 mi SE 8.1 mph - N/A   Clear
10:13 PM 30.2 °F 24.3 °F 17.6 °F 60% 30.25 in 10.0 mi SSE 5.8 mph - N/A   Clear
10:33 PM 30.2 °F 23.4 °F 17.6 °F 60% 30.25 in 10.0 mi SSE 6.9 mph - N/A   Clear
10:53 PM 30.2 °F 23.4 °F 17.6 °F 60% 30.24 in 10.0 mi SSE 6.9 mph - N/A   Clear
11:13 PM 28.4 °F 22.2 °F 19.4 °F 69% 30.24 in 10.0 mi SE 5.8 mph - N/A   Clear
11:33 PM 30.2 °F 23.4 °F 19.4 °F 64% 30.24 in 10.0 mi SE 6.9 mph - N/A   Clear
11:52 PM 30.2 °F 24.3 °F 19.4 °F 64% 30.23 in 10.0 mi SE 5.8 mph - N/A   Clear